Fort Bridger AP, Fort Bridger, WY

3:26 PM MDT on July 25, 2017 (GMT -0600)
Fort Bridger

Weather History for KFBR - January, 2014

Change the Weather History Date:

Wednesday, January 29, 2014

  Actual Average (KEVW) Record (KEVW)
Temperature  
Mean Temperature 34 °F -  
Max Temperature 42 °F 26 °F 38 °F (2011)
Min Temperature 27 °F 13 °F -4 °F (2002)
Degree Days  
Heating Degree Days 30    
Moisture  
Dew Point 28 °F    
Average Humidity 74    
Maximum Humidity 100    
Minimum Humidity 57    
Precipitation  
Precipitation 0.00 in - - ()
Sea Level Pressure  
Sea Level Pressure 29.92 in    
Wind  
Wind Speed 21 mph (WSW)    
Max Wind Speed 36 mph    
Max Gust Speed 47 mph    
Visibility 9 miles    
Events Rain , Snow    
Averages and records for this station are not official NWS values.
T = Trace of Precipitation, MM = Missing Value Source: NWS Daily Summary

Daily Weather History Graph

Daily Weather History Graph

Search for Another Location

Airport or City:

Trip Planner

Search our weather history database for the weather conditions in past years. The results will help you decide how hot, cold, wet, or windy it might be!

Date:

Astronomy

Jan. 29, 2014 Rise Set
Actual Time 7:35 AM MST 5:34 PM MST
Civil Twilight 7:06 AM MST 6:03 PM MST
Nautical Twilight 6:33 AM MST 6:37 PM MST
Astronomical Twilight 6:00 AM MST 7:09 PM MST
Moon 6:15 AM MST (1/29) 4:38 PM MST (1/29)
Length of Visible Light 10h 57m
Length of Day
9h 58m
Waning Crescent, 2% of the Moon is Illuminated
Jan 29
Waning Crescent
Jan 30
New
Feb 6
First Quarter
Feb 14
Full
Feb 22
Last Quarter

Hourly Weather History & Observations

Time (MST) Temp. Windchill Dew Point Humidity Pressure Visibility Wind Dir Wind Speed Gust Speed Precip Events Conditions
12:15 AM 28.0 °F 14.3 °F 19.4 °F 70% 30.14 in 10.0 mi WSW 21.9 mph 28.8 mph N/A   Clear
12:35 AM 28.0 °F 14.3 °F 19.6 °F 71% 30.14 in 10.0 mi WSW 21.9 mph 29.9 mph N/A   Clear
12:55 AM 27.5 °F 15.0 °F 19.4 °F 72% 30.12 in 10.0 mi West 17.3 mph 24.2 mph N/A   Clear
1:15 AM 28.2 °F 14.8 °F 19.4 °F 70% 30.11 in 10.0 mi West 20.7 mph 25.3 mph N/A   Clear
1:35 AM 29.3 °F 16.6 °F 20.3 °F 69% 30.12 in 10.0 mi West 19.6 mph - N/A   Mostly Cloudy
1:55 AM 30.2 °F 17.4 °F 20.3 °F 67% 30.12 in 10.0 mi West 20.7 mph 27.6 mph N/A   Overcast
2:15 AM 31.1 °F 19.7 °F 20.7 °F 65% 30.12 in 10.0 mi West 17.3 mph 26.5 mph N/A   Overcast
2:35 AM 31.5 °F 20.1 °F 20.3 °F 63% 30.12 in 10.0 mi West 17.3 mph 25.3 mph N/A   Overcast
2:55 AM 32.0 °F 19.8 °F 20.3 °F 62% 30.11 in 10.0 mi West 20.7 mph 27.6 mph N/A   Overcast
3:15 AM 32.0 °F 19.5 °F 20.3 °F 62% 30.10 in 10.0 mi West 21.9 mph 31.1 mph N/A   Overcast
3:35 AM 32.0 °F 19.8 °F 20.1 °F 62% 30.11 in 10.0 mi West 20.7 mph - N/A   Overcast
3:55 AM 32.0 °F 22.1 °F 19.8 °F 61% 30.12 in 10.0 mi WSW 13.8 mph 21.9 mph N/A   Overcast
4:15 AM 32.0 °F 21.6 °F 18.9 °F 58% 30.11 in 10.0 mi WSW 15.0 mph 20.7 mph N/A   Overcast
4:35 AM 32.0 °F 21.2 °F 18.3 °F 57% 30.10 in 10.0 mi WSW 16.1 mph 23.0 mph N/A   Overcast
4:55 AM 32.0 °F 20.5 °F 18.1 °F 57% 30.10 in 10.0 mi WSW 18.4 mph 21.9 mph N/A   Overcast
5:15 AM 32.0 °F 21.6 °F 18.7 °F 58% 30.09 in 10.0 mi WSW 15.0 mph 20.7 mph N/A   Overcast
5:35 AM 32.0 °F 22.5 °F 19.0 °F 59% 30.08 in 10.0 mi WSW 12.7 mph 20.7 mph N/A   Overcast
5:55 AM 32.0 °F 23.0 °F 19.2 °F 59% 30.08 in 10.0 mi SW 11.5 mph - N/A   Overcast
6:15 AM 32.4 °F 24.0 °F 19.4 °F 59% 30.08 in 10.0 mi WSW 10.4 mph - N/A   Overcast
6:35 AM 32.0 °F 24.8 °F 19.8 °F 61% 30.08 in 10.0 mi WSW 8.1 mph - N/A   Overcast
6:55 AM 32.4 °F 23.5 °F 20.8 °F 63% 30.06 in 10.0 mi WSW 11.5 mph 17.3 mph N/A   Overcast
7:15 AM 32.9 °F 24.1 °F 21.6 °F 63% 30.06 in 10.0 mi WSW 11.5 mph - N/A   Overcast
7:30 AM 32.4 °F 23.5 °F 22.1 °F 66% 30.05 in 10.0 mi WSW 11.5 mph 18.4 mph N/A   Mostly Cloudy
7:55 AM 32.4 °F 21.7 °F 23.0 °F 68% 30.04 in 10.0 mi West 16.1 mph 20.7 mph N/A   Clear
8:15 AM 32.5 °F 20.8 °F 23.7 °F 70% 30.03 in 10.0 mi West 19.6 mph 25.3 mph N/A   Clear
8:35 AM 33.3 °F 22.5 °F 24.4 °F 70% 30.02 in 10.0 mi West 17.3 mph 23.0 mph N/A   Mostly Cloudy
8:55 AM 34.7 °F 23.4 °F 25.2 °F 68% 30.02 in 10.0 mi West 20.7 mph 32.2 mph N/A   Overcast
9:15 AM 35.2 °F 23.5 °F 26.1 °F 69% 30.01 in 10.0 mi West 23.0 mph 29.9 mph N/A   Overcast
9:35 AM 35.6 °F 24.0 °F 25.3 °F 66% 30.00 in 10.0 mi West 23.0 mph 29.9 mph N/A   Mostly Cloudy
9:55 AM 36.5 °F 25.4 °F 25.7 °F 65% 30.00 in 10.0 mi West 21.9 mph 31.1 mph N/A   Scattered Clouds
10:15 AM 36.5 °F 25.7 °F 25.7 °F 65% 30.00 in 10.0 mi West 20.7 mph 28.8 mph N/A   Overcast
10:35 AM 36.5 °F 24.7 °F 26.4 °F 67% 29.99 in 10.0 mi West 25.3 mph 31.1 mph N/A   Overcast
10:55 AM 36.3 °F 24.4 °F 26.6 °F 68% 29.98 in 10.0 mi WSW 25.3 mph 32.2 mph N/A   Overcast
11:15 AM 37.0 °F 25.4 °F 26.6 °F 66% 29.96 in 10.0 mi West 25.3 mph 33.4 mph N/A   Overcast
11:35 AM 38.1 °F 27.3 °F 27.0 °F 64% 29.94 in 10.0 mi WSW 23.0 mph 35.7 mph N/A   Mostly Cloudy
11:55 AM 39.9 °F 29.5 °F 28.6 °F 64% 29.94 in 10.0 mi WSW 24.2 mph 35.7 mph N/A   Mostly Cloudy
12:15 PM 40.1 °F 29.7 °F 29.8 °F 67% 29.92 in 10.0 mi West 24.2 mph 33.4 mph N/A   Scattered Clouds
12:35 PM 40.3 °F 29.5 °F 30.7 °F 69% 29.90 in 10.0 mi WSW 26.5 mph 38.0 mph N/A   Scattered Clouds
1:00 PM 40.6 °F 28.8 °F 31.5 °F 70% 29.89 in 10.0 mi WSW 33.4 mph 43.7 mph N/A   Overcast
1:15 PM 39.9 °F 28.0 °F 32.0 °F 73% 29.88 in 10.0 mi WSW 32.2 mph 43.7 mph N/A   Overcast
1:35 PM 39.7 °F 28.1 °F 32.2 °F 74% 29.87 in 10.0 mi WSW 29.9 mph 40.3 mph N/A   Mostly Cloudy
1:55 PM 40.1 °F 28.2 °F 32.2 °F 73% 29.84 in 10.0 mi WSW 32.2 mph 41.4 mph N/A   Scattered Clouds
2:15 PM 40.8 °F 29.0 °F 32.7 °F 73% 29.83 in 10.0 mi WSW 33.4 mph 42.6 mph N/A   Clear
2:35 PM 41.0 °F 30.0 °F 32.9 °F 73% 29.82 in 10.0 mi WSW 28.8 mph 47.2 mph N/A   Clear
2:55 PM 41.2 °F 29.2 °F 33.3 °F 73% 29.81 in 10.0 mi WSW 35.7 mph 41.4 mph N/A   Clear
3:15 PM 41.0 °F 30.5 °F 33.8 °F 76% 29.81 in 10.0 mi WSW 26.5 mph 36.8 mph N/A   Scattered Clouds
3:35 PM 40.6 °F 29.4 °F 34.0 °F 77% 29.79 in 10.0 mi WSW 29.9 mph 35.7 mph N/A   Mostly Cloudy
4:00 PM 40.5 °F 29.5 °F 34.3 °F 79% 29.79 in 10.0 mi WSW 27.6 mph 35.7 mph N/A   Overcast
4:15 PM 40.1 °F 28.4 °F 34.3 °F 80% 29.78 in 10.0 mi WSW 31.1 mph 38.0 mph N/A   Overcast
4:35 PM 40.1 °F 29.0 °F 34.7 °F 81% 29.76 in 10.0 mi WSW 27.6 mph 40.3 mph N/A   Overcast
4:55 PM 39.7 °F 28.3 °F 34.9 °F 83% 29.76 in 10.0 mi WSW 28.8 mph 38.0 mph N/A   Overcast
5:15 PM 39.4 °F 28.5 °F 34.9 °F 84% 29.75 in 10.0 mi WSW 25.3 mph 34.5 mph N/A   Overcast
5:35 PM 39.2 °F 28.0 °F 35.1 °F 85% 29.73 in 10.0 mi WSW 26.5 mph 34.5 mph N/A   Scattered Clouds
5:55 PM 39.2 °F 27.4 °F 35.1 °F 85% 29.69 in 10.0 mi WSW 29.9 mph 36.8 mph N/A   Scattered Clouds
6:15 PM 39.4 °F 28.1 °F 35.2 °F 85% 29.68 in 10.0 mi WSW 27.6 mph 36.8 mph N/A   Scattered Clouds
6:35 PM 40.1 °F 29.2 °F 34.7 °F 81% 29.65 in 10.0 mi WSW 26.5 mph 38.0 mph N/A   Scattered Clouds
6:55 PM 40.8 °F 29.8 °F 34.7 °F 79% 29.64 in 10.0 mi WSW 28.8 mph 36.8 mph N/A   Scattered Clouds
7:15 PM 41.9 °F 30.9 °F 34.5 °F 75% 29.62 in 10.0 mi WSW 31.1 mph 36.8 mph N/A   Mostly Cloudy
7:35 PM 42.3 °F 31.8 °F 34.7 °F 75% 29.60 in 10.0 mi WSW 28.8 mph 41.4 mph N/A   Overcast
7:55 PM 41.7 °F 30.8 °F 35.4 °F 78% 29.63 in 10.0 mi West 29.9 mph 41.4 mph N/A Rain Light Rain
8:15 PM 38.5 °F 26.2 °F 36.0 °F 91% 29.69 in 5.0 mi WNW 31.1 mph 44.9 mph N/A Rain Light Rain
8:35 PM 34.2 °F 21.0 °F 33.8 °F 99% 29.72 in 0.2 mi West 27.6 mph - N/A Snow Heavy Snow
9:00 PM 33.3 °F 20.3 °F 33.1 °F 99% 29.73 in 0.8 mi West 25.3 mph 33.4 mph N/A Snow Light Snow
9:15 PM 33.3 °F 20.9 °F 33.1 °F 99% 29.74 in 1.8 mi West 23.0 mph 29.9 mph N/A Snow Light Snow
9:35 PM 32.9 °F 20.7 °F 32.9 °F 100% 29.74 in 1.8 mi West 21.9 mph 31.1 mph N/A Snow Light Snow
9:55 PM 32.5 °F 20.8 °F 32.4 °F 99% 29.76 in 2.0 mi West 19.6 mph 27.6 mph N/A Snow Light Snow
10:15 PM 32.2 °F 20.7 °F 32.0 °F 99% 29.78 in 7.0 mi WNW 18.4 mph 27.6 mph N/A Snow Light Snow
10:35 PM 32.0 °F 18.9 °F 30.9 °F 96% 29.80 in 3.0 mi NW 24.2 mph 29.9 mph N/A Snow Light Snow
10:55 PM 31.1 °F 18.3 °F 30.2 °F 96% 29.82 in 2.5 mi WNW 21.9 mph 26.5 mph N/A Snow Light Snow
11:15 PM 31.1 °F 19.7 °F 30.6 °F 98% 29.81 in 1.2 mi West 17.3 mph 21.9 mph N/A Snow Light Snow
11:35 PM 30.2 °F 18.9 °F 29.3 °F 96% 29.82 in 3.0 mi WSW 16.1 mph - N/A Snow Light Snow
11:55 PM 30.4 °F 19.5 °F 28.4 °F 92% 29.82 in 5.0 mi WSW 15.0 mph 20.7 mph N/A Snow Light Snow